Location: Praha
(50.0830°N, 14.4670°E)
Time: 12:32:39
(UTC+02:00)

ISS - Pass Details

Date: 05 July 2019
Orbit: 409 x 418 km, 51.6° (Epoch: 21 July)

Event Time Altitude Azimuth Distance (km) Brightness Sun altitude
Exits shadow 02:34:01 11° 139° (SE) 1,390 -1.4 -14.6°
Maximum altitude 02:34:11 11° 136° (SE) 1,388 -1.4 -14.6°
Drops below altitude 10° 02:35:21 10° 115° (ESE) 1,476 -1.0 -14.5°
Sets 02:38:36 0° 81° (E) 2,341 0.5 -14.3°
